CW8198 Weather Reports


Display with metric or nautical units.
time (UTC)temp
F
wind
direction
speed
MPH
gust
MPH
rain 1hr
in
rain 24hr
in
rain mn
in
humidity
%
barometer
mb
20260901045749 75 51 0.0 1.0 0.00 0.00 0.00 89 1013.9
20260901045243 75 334 1.0 1.0 0.00 0.00 0.00 89 1014.0
20260901044737 75 26 0.0 1.0 0.00 0.00 0.00 89 1013.9
20260901044238 75 309 0.0 1.0 0.00 0.00 0.00 89 1014.0
20260901043738 76 221 0.0 1.0 0.00 0.00 0.00 89 1013.9
20260901043238 76 309 0.0 1.0 0.00 0.00 0.00 89 1013.8
20260901042733 76 178 0.0 1.0 0.00 0.00 0.00 89 1014.0
20260901042232 76 309 0.0 1.0 0.00 0.00 0.00 89 1013.9
20260901041732 76 178 1.0 1.0 0.00 0.00 0.00 89 1014.0
20260901040722 76 178 0.0 2.0 0.00 0.00 0.00 88 1014.0
20260901040222 76 165 1.0 2.0 0.00 0.00 0.00 88 1014.0
20260901035222 76 221 1.0 2.0 0.00 0.00 0.00 88 1013.7
20260901034721 76 325 0.0 1.0 0.00 0.00 0.00 88 1013.7
20260901033716 76 26 1.0 2.0 0.00 0.00 0.00 88 1013.6
20260901033215 77 9 1.0 2.0 0.00 0.00 0.00 88 1013.7
20260901032716 77 325 0.0 2.0 0.00 0.00 0.00 88 1013.7
20260901032215 77 265 0.0 2.0 0.00 0.00 0.00 88 1013.5
20260901031715 77 119 1.0 2.0 0.00 0.00 0.00 87 1013.5
20260901031214 77 9 0.0 2.0 0.00 0.00 0.00 87 1013.5
20260901030714 77 137 1.0 2.0 0.00 0.00 0.00 87 1013.5
20260901025716 78 309 0.0 1.0 0.00 0.00 0.00 87 1013.5
20260901025215 78 265 0.0 1.0 0.00 0.00 0.00 87 1013.4
20260901024714 78 265 0.0 1.0 0.00 0.00 0.00 87 1013.4
20260901024214 78 221 0.0 1.0 0.00 0.00 0.00 86 1013.3
20260901023715 78 221 0.0 1.0 0.00 0.00 0.00 86 1013.3
20260901023213 78 238 0.0 1.0 0.00 0.00 0.00 86 1013.3
20260901022713 78 193 0.0 1.0 0.00 0.00 0.00 86 1013.1
20260901022214 79 309 0.0 1.0 0.00 0.00 0.00 86 1013.1
20260901020712 79 137 0.0 2.0 0.00 0.00 0.00 85 1012.9
20260901015712 80 205 1.0 2.0 0.00 0.00 0.00 84 1012.7
20260901015212 80 212 2.0 2.0 0.00 0.00 0.00 84 1012.7
20260901014211 80 265 0.0 1.0 0.00 0.00 0.00 82 1012.6
20260901013711 80 221 0.0 1.0 0.00 0.00 0.00 82 1012.6
20260901013206 81 9 0.0 1.0 0.00 0.00 0.00 81 1012.6
20260901012707 81 9 0.0 1.0 0.00 0.00 0.00 81 1012.6
20260901011651 82 291 0.0 1.0 0.00 0.00 0.00 81 1012.6
20260901010650 83 212 1.0 2.0 0.00 0.00 0.00 80 1012.7
20260901005649 83 41 0.0 1.0 0.00 0.00 0.00 80 1012.7
20260901005149 84 221 0.0 2.0 0.00 0.00 0.00 79 1012.7
20260901004649 84 41 1.0 2.0 0.00 0.00 0.00 78 1012.6
20260901004149 84 34 0.0 2.0 0.00 0.00 0.00 78 1012.7
20260901003148 84 26 0.0 2.0 0.00 0.00 0.00 76 1012.6
20260901002647 85 51 0.0 1.0 0.00 0.00 0.00 76 1012.9
20260901002149 85 119 1.0 2.0 0.00 0.00 0.00 75 1012.8
20260901001642 85 111 1.0 2.0 0.00 0.00 0.00 74 1012.7
20260901001142 86 41 0.0 2.0 0.00 0.00 0.00 74 1012.7
20260901000142 86 93 1.0 2.0 0.00 0.00 0.00 72 1012.8
20260831235642 87 137 1.0 2.0 0.00 0.00 0.00 71 1012.7
20260831235141 87 178 1.0 2.0 0.00 0.00 0.00 71 1012.8
20260831234641 87 178 0.0 2.0 0.00 0.00 0.00 68 1012.7
20260831234141 87 9 0.0 3.0 0.00 0.00 0.00 67 1012.7
20260831233642 87 51 1.0 3.0 0.00 0.00 0.00 69 1012.7
20260831233140 87 282 1.0 2.0 0.00 0.00 0.00 74 1012.8
20260831232640 87 250 0.0 2.0 0.00 0.00 0.00 72 1012.9
20260831232140 87 221 0.0 2.0 0.00 0.00 0.00 73 1012.8
20260831231639 87 250 1.0 3.0 0.00 0.00 0.00 73 1012.7
20260831231140 87 196 1.0 3.0 0.00 0.00 0.00 73 1012.8
20260831230639 87 26 0.0 3.0 0.00 0.00 0.00 72 1012.7
20260831230139 87 247 1.0 3.0 0.00 0.00 0.00 70 1012.8
20260831225138 88 265 1.0 4.0 0.00 0.00 0.00 70 1012.7
20260831224638 88 265 0.0 3.0 0.00 0.00 0.00 69 1012.8
20260831223638 88 265 1.0 3.0 0.00 0.00 0.00 67 1012.7
20260831222638 89 323 2.0 5.0 0.00 0.00 0.00 66 1012.8
20260831222138 89 309 1.0 5.0 0.00 0.00 0.00 66 1012.9
20260831221637 89 334 1.0 5.0 0.00 0.00 0.00 66 1013.0
20260831221137 89 41 1.0 5.0 0.00 0.00 0.00 66 1012.9
20260831220633 89 20 2.0 4.0 0.00 0.00 0.00 66 1012.9
20260831215634 89 250 2.0 3.0 0.00 0.00 0.00 66 1012.9
20260831215132 89 309 1.0 6.0 0.00 0.00 0.00 65 1013.0
20260831214631 89 250 2.0 7.0 0.00 0.00 0.00 66 1013.0
20260831214131 89 265 1.0 7.0 0.00 0.00 0.00 64 1013.0
20260831213631 89 275 2.0 6.0 0.00 0.00 0.00 64 1013.0
20260831213132 89 265 3.0 8.0 0.00 0.00 0.00 63 1013.3
20260831212631 90 261 3.0 9.0 0.00 0.00 0.00 61 1013.1
20260831212131 90 217 4.0 9.0 0.00 0.00 0.00 57 1013.1
20260831211630 92 241 5.0 8.0 0.00 0.00 0.00 58 1013.1
20260831211131 92 245 5.0 10.0 0.00 0.00 0.00 61 1013.1
20260831210131 93 238 4.0 9.0 0.00 0.00 0.00 60 1013.1
20260831205630 92 236 5.0 9.0 0.00 0.00 0.00 61 1013.3
20260831205130 92 257 3.0 11.0 0.00 0.00 0.00 65 1013.3
20260831204630 92 338 4.0 11.0 0.00 0.00 0.00 61 1013.3
20260831204129 92 9 2.0 9.0 0.00 0.00 0.00 65 1013.4
20260831203630 92 265 4.0 10.0 0.00 0.00 0.00 62 1013.4
20260831202629 91 265 4.0 8.0 0.00 0.00 0.00 63 1013.6
20260831202129 91 225 3.0 9.0 0.00 0.00 0.00 61 1013.5
20260831201629 91 295 4.0 10.0 0.00 0.00 0.00 58 1013.6
20260831201130 91 261 4.0 10.0 0.00 0.00 0.00 59 1013.5
20260831200628 91 269 4.0 8.0 0.00 0.00 0.00 65 1013.6
20260831200129 90 257 5.0 8.0 0.00 0.00 0.00 63 1013.6
20260831195128 92 227 6.0 11.0 0.00 0.00 0.00 57 1013.6
20260831194627 93 44 4.0 8.0 0.00 0.00 0.00 61 1013.5
20260831194127 92 250 2.0 9.0 0.00 0.00 0.00 61 1013.6
20260831193627 92 241 5.0 9.0 0.00 0.00 0.00 65 1013.5
20260831193126 91 234 3.0 8.0 0.00 0.00 0.00 64 1013.6
20260831192627 91 9 1.0 9.0 0.00 0.00 0.00 61 1013.5
20260831192126 92 209 3.0 9.0 0.00 0.00 0.00 60 1013.4
20260831191626 92 300 2.0 6.0 0.00 0.00 0.00 65 1013.5
20260831191128 91 338 2.0 7.0 0.00 0.00 0.00 65 1013.5
20260831190626 90 284 3.0 7.0 0.00 0.00 0.00 65 1013.5
20260831190126 90 228 4.0 7.0 0.00 0.00 0.00 66 1013.5
20260831185626 90 342 2.0 7.0 0.00 0.00 0.00 67 1013.5
20260831185125 89 282 2.0 7.0 0.00 0.00 0.00 70 1013.6
20260831184625 89 340 2.0 7.0 0.00 0.00 0.00 69 1013.5
20260831184125 89 221 2.0 8.0 0.00 0.00 0.00 65 1013.5
20260831183626 89 208 2.0 8.0 0.00 0.00 0.00 67 1013.6
20260831183121 88 254 3.0 8.0 0.00 0.00 0.00 68 1013.7
20260831182120 88 93 2.0 6.0 0.00 0.00 0.00 68 1013.6
20260831181619 87 340 2.0 4.0 0.00 0.00 0.00 68 1013.5
20260831181122 87 250 2.0 7.0 0.00 0.00 0.00 71 1013.6
20260831180620 86 265 2.0 7.0 0.00 0.00 0.00 73 1013.6
20260831180119 85 13 2.0 6.0 0.00 0.00 0.00 74 1013.6
20260831175619 85 273 2.0 7.0 0.00 0.00 0.00 71 1013.7
20260831174619 85 252 3.0 7.0 0.00 0.00 0.00 71 1013.8
20260831174118 85 255 3.0 7.0 0.00 0.00 0.00 71 1013.8
20260831173619 85 282 3.0 7.0 0.00 0.00 0.00 73 1013.6
20260831173118 85 257 3.0 8.0 0.00 0.00 0.00 72 1013.6
20260831172617 85 261 4.0 8.0 0.00 0.00 0.00 72 1013.7
20260831172117 85 221 2.0 7.0 0.00 0.00 0.00 72 1013.6
20260831171618 85 265 2.0 6.0 0.00 0.00 0.00 74 1013.6
20260831171119 85 259 2.0 6.0 0.00 0.00 0.00 69 1013.7
20260831170617 85 305 2.0 6.0 0.00 0.00 0.00 72 1013.6
20260831165617 84 303 2.0 8.0 0.00 0.00 0.00 75 1013.5
20260831165116 84 15 3.0 8.0 0.00 0.00 0.00 74 1013.4
20260831164616 83 328 4.0 10.0 0.00 0.00 0.00 75 1013.4
20260831164116 83 25 2.0 10.0 0.00 0.00 0.00 77 1013.4
20260831163616 82 9 2.0 7.0 0.00 0.00 0.00 76 1013.5
20260831163116 82 309 2.0 7.0 0.00 0.00 0.00 77 1013.6
20260831162615 82 262 3.0 7.0 0.00 0.00 0.00 75 1013.6
20260831162116 82 309 2.0 7.0 0.00 0.00 0.00 76 1013.6
20260831161615 82 309 2.0 6.0 0.00 0.00 0.00 76 1013.5
20260831161117 82 9 2.0 6.0 0.00 0.00 0.00 76 1013.4
20260831160611 82 229 2.0 10.0 0.00 0.00 0.00 75 1012.9
20260831160109 83 291 2.0 10.0 0.00 0.00 0.00 74 1012.8
20260831155609 83 257 2.0 9.0 0.00 0.00 0.00 75 1012.7
20260831154609 83 272 3.0 9.0 0.00 0.00 0.00 77 1012.7
20260831154109 82 280 2.0 6.0 0.00 0.00 0.00 78 1012.6
20260831153609 82 265 2.0 6.0 0.00 0.00 0.00 79 1012.5
20260831153108 81 265 1.0 5.0 0.00 0.00 0.00 82 1012.6
20260831152609 80 281 2.0 5.0 0.00 0.00 0.00 84 1012.7
20260831152108 79 312 1.0 4.0 0.00 0.00 0.00 85 1012.7
20260831151108 77 9 3.0 5.0 0.00 0.00 0.00 86 1012.5
20260831150608 77 23 3.0 5.0 0.00 0.00 0.00 87 1012.5
20260831150108 76 341 2.0 5.0 0.00 0.00 0.00 87 1012.6
20260831145107 76 251 2.0 4.0 0.00 0.00 0.00 88 1012.7
20260831144103 75 19 2.0 4.0 0.00 0.00 0.00 89 1012.4
20260831143602 74 9 2.0 3.0 0.00 0.00 0.00 88 1012.1
20260831143103 74 51 2.0 3.0 0.00 0.00 0.00 89 1011.9
20260831142102 74 286 3.0 9.0 0.00 0.00 0.00 89 1012.3
20260831141602 74 217 6.0 9.0 0.00 0.00 0.00 89 1012.6
20260831141103 74 284 2.0 9.0 0.00 0.00 0.00 90 1011.9
20260831135602 73 165 5.0 18.0 0.00 0.00 0.00 90 1010.8
20260831135102 73 347 9.0 20.0 0.00 0.00 0.00 90 1009.8
20260831134602 73 25 9.0 20.0 0.00 0.00 0.00 90 1010.0
20260831134100 73 342 7.0 14.0 0.00 0.00 0.00 90 1011.9
20260831133101 73 282 4.0 11.0 0.00 0.00 0.00 90 1012.6
20260831132559 73 316 4.0 10.0 0.00 0.00 0.00 90 1012.2
20260831132100 74 311 3.0 7.0 0.00 0.00 0.00 90 1012.5
20260831131600 74 259 5.0 7.0 0.00 0.00 0.00 90 1013.4
20260831131100 74 291 0.0 2.0 0.00 0.00 0.00 90 1012.7
20260831130558 73 221 0.0 2.0 0.00 0.00 0.00 90 1012.5
20260831130059 73 51 1.0 3.0 0.00 0.00 0.00 90 1012.5
20260831125558 73 325 1.0 3.0 0.00 0.00 0.00 90 1012.7
20260831125058 73 115 1.0 3.0 0.00 0.00 0.00 90 1012.5
20260831122547 72 9 0.0 2.0 0.00 0.00 0.00 90 1011.8
20260831122046 72 265 1.0 2.0 0.00 0.00 0.00 90 1011.7
20260831121546 72 265 0.0 2.0 0.00 0.00 0.00 90 1011.7
20260831121047 72 250 1.0 2.0 0.00 0.00 0.00 90 1011.6
20260831120547 72 221 0.0 2.0 0.00 0.00 0.00 91 1011.3
20260831120046 72 34 0.0 1.0 0.00 0.00 0.00 91 1011.3
20260831115546 72 9 0.0 1.0 0.00 0.00 0.00 90 1011.1
20260831115046 72 9 0.0 1.0 0.00 0.00 0.00 90 1011.1
20260831114045 73 325 0.0 1.0 0.00 0.00 0.00 90 1010.9
20260831113044 72 51 2.0 2.0 0.00 0.00 0.00 90 1010.7
20260831112545 72 51 0.0 2.0 0.00 0.00 0.00 90 1010.6
20260831112045 73 26 0.0 2.0 0.00 0.00 0.00 90 1010.7
20260831111544 73 298 0.0 2.0 0.00 0.00 0.00 90 1010.5
20260831111044 73 137 1.0 3.0 0.00 0.00 0.00 90 1010.4
20260831110543 73 126 1.0 4.0 0.00 0.00 0.00 90 1010.3
20260831105545 72 76 1.0 2.0 0.00 0.00 0.00 90 1010.4
20260831104543 72 153 0.0 1.0 0.00 0.00 0.00 90 1010.4
20260831103543 72 221 0.0 2.0 0.00 0.00 0.00 90 1010.3
20260831103043 72 165 1.0 2.0 0.00 0.00 0.00 90 1010.4
20260831102542 72 298 0.0 1.0 0.00 0.00 0.00 90 1010.2
20260831102043 72 265 0.0 2.0 0.00 0.00 0.00 90 1010.2
20260831101041 72 178 0.0 3.0 0.00 0.00 0.00 90 1010.3
20260831100036 72 103 0.0 2.0 0.00 0.00 0.00 90 1009.9
20260831095536 72 93 0.0 2.0 0.00 0.00 0.00 90 1010.0
20260831095035 72 41 0.0 2.0 0.00 0.00 0.00 90 1010.0
20260831094535 72 221 0.0 2.0 0.00 0.00 0.00 90 1010.0
20260831094035 72 51 0.0 2.0 0.00 0.00 0.00 90 1010.0
20260831093535 72 9 1.0 4.0 0.00 0.00 0.00 90 1009.9
20260831093030 72 9 1.0 4.0 0.00 0.00 0.00 90 1009.8
20260831092529 72 148 2.0 4.0 0.00 0.00 0.00 90 1009.9
20260831092031 72 309 0.0 1.0 0.00 0.00 0.00 90 1009.8
20260831091514 72 334 0.0 2.0 0.00 0.00 0.00 90 1009.7
20260831091014 72 9 0.0 2.0 0.00 0.00 0.00 90 1009.7
20260831090513 72 108 1.0 3.0 0.00 0.00 0.00 90 1009.7
20260831085513 72 9 0.0 2.0 0.00 0.00 0.00 90 1009.8
20260831085013 72 51 0.0 2.0 0.00 0.00 0.00 90 1009.8
20260831084513 72 325 0.0 1.0 0.00 0.00 0.00 90 1009.8
20260831084013 72 309 0.0 3.0 0.00 0.00 0.00 90 1009.6
20260831083512 73 137 1.0 3.0 0.00 0.00 0.00 90 1009.5
20260831083013 73 221 1.0 3.0 0.00 0.00 0.00 90 1009.5
20260831082512 73 282 1.0 3.0 0.00 0.00 0.00 90 1009.2
20260831082013 73 16 2.0 2.0 0.00 0.00 0.00 90 1009.3
20260831081512 73 9 0.0 2.0 0.00 0.00 0.00 89 1009.3
20260831081012 73 137 0.0 2.0 0.00 0.00 0.00 90 1009.1
20260831080512 73 119 1.0 2.0 0.00 0.00 0.00 90 1009.3
20260831080012 73 265 1.0 1.0 0.00 0.00 0.00 89 1009.4
20260831075511 73 265 0.0 1.0 0.00 0.00 0.00 89 1009.3
20260831075012 73 34 0.0 1.0 0.00 0.00 0.00 89 1009.2
20260831074501 73 93 0.0 2.0 0.00 0.00 0.00 89 1009.2
20260831073956 73 34 1.0 2.0 0.00 0.00 0.00 90 1009.2
20260831073457 73 9 0.0 2.0 0.00 0.00 0.00 89 1009.3
20260831072951 74 108 1.0 3.0 0.00 0.00 0.00 89 1009.3
20260831072451 74 115 1.0 3.0 0.00 0.00 0.00 89 1009.3
20260831071950 74 126 1.0 3.0 0.00 0.00 0.00 89 1009.2
20260831071450 74 137 0.0 3.0 0.00 0.00 0.00 89 1009.2
20260831070945 74 117 2.0 3.0 0.00 0.00 0.00 89 1009.3
20260831070445 74 111 1.0 3.0 0.00 0.00 0.00 89 1009.4
20260831065445 74 196 1.0 2.0 0.00 0.00 0.00 89 1009.5
20260831064944 74 137 1.0 2.0 0.00 0.00 0.00 89 1009.5
20260831063944 74 338 0.0 2.0 0.00 0.00 0.00 88 1009.5
20260831063444 74 334 0.0 2.0 0.00 0.00 0.00 88 1009.5
20260831062443 75 284 1.0 2.0 0.00 0.00 0.00 88 1009.7
20260831060944 75 162 0.0 2.0 0.00 0.00 0.00 88 1009.5
20260831055943 75 178 0.0 2.0 0.00 0.00 0.00 87 1009.5
20260831055443 75 137 0.0 2.0 0.00 0.00 0.00 87 1009.5
20260831054943 75 34 0.0 2.0 0.00 0.00 0.00 87 1009.4
20260831054442 76 298 1.0 2.0 0.00 0.00 0.00 87 1009.2
20260831053943 76 119 1.0 2.0 0.00 0.00 0.00 87 1009.2
20260831052938 76 9 0.0 1.0 0.00 0.00 0.00 86 1009.3
20260831052435 76 153 0.0 2.0 0.00 0.00 0.00 86 1009.2
20260831051934 76 51 0.0 2.0 0.00 0.00 0.00 86 1009.1
20260831051434 76 215 1.0 3.0 0.00 0.00 0.00 86 1009.2
20260831050934 76 205 0.0 3.0 0.00 0.00 0.00 86 1009.1
20260831050433 76 291 1.0 2.0 0.00 0.00 0.00 86 1009.0
20260831045934 77 178 1.0 2.0 0.00 0.00 0.00 85 1009.0